Terug naar catalogus

STARLINK-30341

ActiefCommunicatieVLEO
NORAD 57714·PAYLOAD·🇺🇸 United States

Gelanceerd Aug 27, 2023 vanaf Cape Canaveral Space Force Station

Loading…

Volgende Passages (komende 24 uur)

TLE

VersSource: CelesTrak SupGP

Epoch: Sep 14, 2026, 21:40 UTC

1 57714C 23129S   26257.90326389 -.00003171  00000+0 -11484-3 0  2574
2 57714  43.0013 132.6465 0001582 266.9950   7.0832 15.27579935    11

Volg STARLINK-30341 in realtime met AllMySat

Download on the App Store